Weather History for Scottsdale, AZ

Change the Weather History Date:

Thursday, August 15, 2013

  Actual Average Record
Temperature  
Mean Temperature 98 °F -  
Max Temperature 107 °F 99 °F 107 °F (2010)
Min Temperature 88 °F 79 °F 73 °F (1998)
Cooling Degree Days 32    
Growing Degree Days 48 (Base 50)    
Moisture  
Dew Point 55 °F    
Average Humidity 25    
Maximum Humidity 37    
Minimum Humidity 17    
Precipitation  
Precipitation 0.00 in - - ()
Sea Level Pressure  
Sea Level Pressure 29.82 in    
Wind  
Wind Speed 5 mph (South)    
Max Wind Speed 8 mph    
Max Gust Speed 21 mph    
Visibility 10 miles    
Events Thunderstorm    
Averages and records for this station are not official NWS values.
T = Trace of Precipitation, MM = Missing Value Source: NWS Daily Summary

Daily Weather History Graph

Daily Weather History Graph

Search for Another Location

Airport:

Trip Planner

Search our weather history database for the weather conditions in past years. The results will help you decide how hot, cold, wet, or windy it might be!

Date:

Astronomy

Aug. 15, 2013 Rise Set
Actual Time 5:50 AM MST 7:13 PM MST
Civil Twilight 5:23 AM MST 7:39 PM MST
Nautical Twilight 4:52 AM MST 8:11 PM MST
Astronomical Twilight 4:19 AM MST 8:43 PM MST
Moon 2:29 PM MST (8/15) 12:06 AM MST (8/15)
Length of Visible Light 14h 16m
Length of Day
13h 23m
Waxing Gibbous, 65% of the Moon is Illuminated
Aug 15
Waxing Gibbous
Aug 20
Full
Aug 28
Last Quarter
Sep 5
New
Sep 12
First Quarter

Hourly Weather History & Observations

Time (MST) Temp. Heat Index Dew Point Humidity Pressure Visibility Wind Dir Wind Speed Gust Speed Precip Events Conditions
12:21 AM 96.8 °F - 46.4 °F 18% 29.90 in 10.0 mi South 3.5 mph - N/A   Scattered Clouds
12:36 AM 93.2 °F - 51.8 °F 24% 29.90 in 10.0 mi Variable 6.9 mph 20.7 mph N/A Thunderstorm Clear
12:51 AM 91.4 °F - 51.8 °F 26% 29.91 in 10.0 mi SSW 8.1 mph - N/A   Clear
12:53 AM 93.0 °F - 52.0 °F 25% 29.81 in 10.0 mi South 8.1 mph - N/A   Clear
1:53 AM 91.9 °F 89.5 °F 54.0 °F 27% 29.80 in 10.0 mi Calm Calm - N/A   Mostly Cloudy
2:53 AM 91.9 °F 90.6 °F 57.0 °F 31% 29.80 in 10.0 mi ESE 6.9 mph - N/A   Mostly Cloudy
3:53 AM 91.0 °F 90.0 °F 57.9 °F 33% 29.81 in 10.0 mi ESE 5.8 mph - N/A   Clear
4:53 AM 90.0 °F 88.8 °F 57.9 °F 34% 29.82 in 10.0 mi Calm Calm - N/A   Clear
5:53 AM 88.0 °F 87.1 °F 59.0 °F 37% 29.84 in 10.0 mi SSW 3.5 mph - N/A   Clear
6:53 AM 89.1 °F 88.2 °F 59.0 °F 36% 29.86 in 4.0 mi Calm Calm - N/A   Haze
7:53 AM 90.0 °F 89.1 °F 59.0 °F 35% 29.87 in 10.0 mi Calm Calm - N/A   Clear
8:53 AM 93.9 °F 93.6 °F 60.1 °F 32% 29.87 in 10.0 mi South 3.5 mph - N/A   Clear
9:53 AM 98.1 °F 96.4 °F 55.9 °F 24% 29.86 in 10.0 mi South 6.9 mph - N/A   Clear
10:53 AM 99.0 °F 98.1 °F 57.0 °F 25% 29.86 in 10.0 mi South 4.6 mph - N/A   Clear
11:53 AM 100.9 °F 100.0 °F 57.0 °F 23% 29.84 in 10.0 mi Variable 5.8 mph - N/A   Clear
12:53 PM 102.9 °F 101.9 °F 55.9 °F 21% 29.82 in 10.0 mi Variable 5.8 mph - N/A   Clear
1:53 PM 104.0 °F 102.9 °F 55.0 °F 20% 29.79 in 10.0 mi Variable 3.5 mph - N/A   Clear
2:53 PM 105.1 °F 103.3 °F 54.0 °F 18% 29.77 in 10.0 mi Variable 4.6 mph - N/A   Clear
3:53 PM 107.1 °F 105.4 °F 53.1 °F 17% 29.75 in 10.0 mi SSW 5.8 mph - N/A   Clear
4:53 PM 106.0 °F 103.9 °F 53.1 °F 17% 29.73 in 10.0 mi Variable 4.6 mph - N/A   Clear
5:53 PM 106.0 °F - 52.0 °F 17% 29.73 in 10.0 mi SW 8.1 mph - N/A   Clear
6:53 PM 105.1 °F 103.3 °F 53.1 °F 18% 29.74 in 10.0 mi SW 3.5 mph - N/A   Clear
7:53 PM 100.0 °F 97.9 °F 53.1 °F 21% 29.77 in 10.0 mi ESE 8.1 mph - N/A   Clear
8:53 PM 100.0 °F 97.9 °F 53.1 °F 21% 29.78 in 10.0 mi East 6.9 mph - N/A   Clear
10:53 PM 96.1 °F 94.1 °F 55.0 °F 25% 29.79 in 10.0 mi Calm Calm - N/A   Clear
11:53 PM 95.0 °F 93.0 °F 55.0 °F 26% 29.79 in 10.0 mi Calm Calm - N/A   Clear